Dewpoint
7 9 11 12 13 13 13 13 13 13 14 14 13 14 14 14 13 13 13 13 13 12 13 13 12 11 10 10 9 8 8 7 7 7 7 8 7 5 6 7 8 8 8
1 5 5 7 9 10 11 13 13 14 13 13 13 13 13 13 13 13 13 13 13 13 13 13 12 12 12 11 11 10 10 10 9 9 9 8 8 8 7 8 8 8 8
-0 0 1 3 4 5 6 8 11 12 13 13 14 13 13 13 13 13 13 13 13 13 13 13 13 12 12 12 11 11 11 11 11 10 9 9 10 9 8 8 8 8 9
0 1 0 -0 -0 -0 1 3 6 7 9 10 12 13 13 13 13 12 13 13 13 13 12 12 12 12 13 12 12 12 11 11 11 11 10 9 9 9 9 9 9 9 9
-3 -2 -1 -0 1 0 -1 -2 -0 2 4 5 6 10 10 11 11 12 12 12 12 11 11 11 12 11 12 12 11 11 11 11 10 10 11 10 10 10 10 10 10 10 10
-5 -6 -4 -2 -2 -2 -1 -0 -0 -2 -2 0 2 5 8 10 9 8 8 11 11 11 11 11 11 11 12 10 9 10 10 9 10 10 10 10 10 10 10 10 9 9 9
-4 -9 -7 -9 -7 -4 -5 -4 -4 -1 0 -3 -3 -1 1 3 7 7 9 10 8 11 11 11 10 11 11 11 10 11 10 10 10 10 10 9 8 9 10 9 9 9 9
-5 -3 -4 -7 -8 -10 -10 -7 -8 -5 -5 -1 1 -1 -4 -3 -0 1 5 5 8 9 9 10 11 11 11 10 10 10 11 10 10 10 10 9 10 10 10 10 10 10 10
-6 -4 -5 -8 -9 -6 -8 -10 -9 -9 -7 -5 -3 -4 -1 -4 -6 -7 -5 -4 -1 -0 0 8 10 10 10 10 10 10 10 10 10 10 10 10 10 10 10 10 10 9 9
-8 -7 -7 -6 -8 -5 -7 -9 -8 -9 -9 -11 -10 -5 -4 -4 -4 -6 -7 -8 -7 -9 -13 -11 -5 2 8 9 10 10 10 10 10 10 10 10 10 10 10 10 10 10 10
-6 -7 -7 -7 -7 -8 -7 -7 -8 -9 -10 -10 -11 -12 -11 -10 -6 -5 -5 -5 -6 -8 -10 -13 -15 -14 -8 -3 2 7 9 9 9 10 10 10 10 10 10 9 10 10 9
-5 -6 -7 -8 -7 -7 -8 -8 -7 -7 -8 -8 -9 -11 -12 -12 -15 -13 -7 -6 -6 -8 -9 -10 -11 -13 -16 -15 -8 -3 1 5 8 8 9 9 9 9 9 9 9 9 9
-5 -5 -6 -7 -7 -7 -6 -7 -7 -6 -5 -6 -6 -8 -9 -10 -11 -14 -16 -12 -8 -6 -8 -8 -9 -11 -12 -14 -17 -14 -7 -2 1 4 4 7 8 8 9 9 9 8 8
-5 -7 -6 -6 -7 -5 -7 -7 -6 -6 -6 -6 -6 -6 -6 -8 -9 -10 -11 -13 -14 -12 -8 -7 -7 -9 -10 -13 -14 -15 -17 -6 1 2 3 4 7 8 8 8 9 9 9
-5 -5 -6 -8 -7 -6 -6 -5 -5 -5 -5 -5 -6 -5 -6 -7 -7 -6 -7 -8 -10 -12 -14 -10 -7 -8 -9 -13 -14 -14 -14 -15 -2 2 3 3 6 7 7 7 8 8 8
-6 -8 -8 -8 -8 -7 -7 -7 -7 -7 -6 -5 -5 -5 -6 -5 -6 -6 -5 -6 -6 -7 -8 -10 -11 -9 -7 -9 -11 -14 -13 -13 -3 2 3 3 5 6 6 7 7 8 8
-7 -7 -9 -8 -6 -5 -5 -5 -6 -7 -7 -7 -6 -7 -6 -5 -6 -6 -5 -5 -5 -5 -5 -5 -7 -9 -10 -9 -8 -10 -13 -15 -9 -0 3 3 4 5 5 6 6 7 7
-7 -7 -7 -6 -6 -6 -6 -6 -6 -5 -5 -5 -6 -6 -5 -5 -5 -5 -5 -5 -5 -5 -5 -5 -5 -7 -10 -10 -6 -5 -8 -9 -3 1 3 3 4 4 5 6 6 6 6
-8 -7 -6 -6 -6 -5 -6 -6 -6 -6 -6 -6 -6 -5 -5 -5 -5 -5 -5 -6 -5 -5 -5 -5 -5 -5 -7 -8 -9 -6 -6 -6 0 0 1 2 3 4 5 5 5 5 4
-8 -7 -7 -7 -6 -5 -5 -6 -6 -5 -5 -5 -5 -5 -5 -5 -5 -5 -5 -6 -6 -5 -5 -5 -5 -5 -4 -4 -7 -6 -5 -7 -0 0 2 2 3 3 4 4 4 3 2
-7 -7 -6 -7 -6 -6 -5 -6 -6 -5 -6 -6 -5 -5 -5 -5 -5 -4 -5 -5 -5 -6 -5 -5 -5 -5 -4 -3 -3 -2 -4 -7 -1 1 1 2 3 3 3 2 2 2 1
-7 -7 -7 -6 -6 -6 -6 -6 -6 -6 -6 -6 -6 -5 -6 -5 -4 -4 -4 -4 -4 -5 -4 -4 -4 -4 -4 -3 -2 -2 -3 -3 0 1 2 2 2 2 2 1 1 0 0
-7 -7 -7 -7 -6 -6 -6 -6 -6 -6 -6 -6 -6 -6 -6 -5 -4 -4 -4 -4 -4 -4 -4 -4 -4 -4 -4 -3 -2 -2 -2 -1 -0 0 1 1 0 1 0 0 -0 -0 -1
-7 -7 -7 -7 -7 -6 -6 -6 -6 -6 -6 -6 -6 -6 -6 -5 -4 -4 -4 -4 -4 -3 -3 -3 -3 -3 -3 -3 -2 -1 -1 -1 -0 0 0 -0 -1 -1 -1 -1 -1 -1 -1
-8 -8 -8 -8 -7 -7 -7 -6 -6 -6 -6 -6 -7 -6 -6 -6 -5 -4 -3 -3 -4 -3 -3 -3 -3 -2 -2 -2 -1 -1 -1 -1 -1 -1 -1 -2 -2 -2 -2 -2 -2 -2 -2
-8 -9 -8 -8 -8 -7 -7 -7 -7 -7 -6 -6 -7 -7 -6 -6 -6 -5 -5 -4 -4 -4 -4 -4 -3 -3 -3 -3 -3 -3 -3 -2 -2 -2 -2 -2 -2 -2 -2 -2 -2 -2 -2
Wind_Speed
27 19 17 20 22 33 37 39 38 40 44 44 48 53 58 61 57 57 58 56 59 59 53 55 58 58 48 48 49 50 49 45 41 37 26 22 26 26 29 31 31 31 31
43 37 36 27 21 21 20 30 32 38 41 38 43 45 51 53 55 57 61 58 55 55 54 52 51 53 55 52 42 46 47 45 42 40 32 32 32 29 30 31 30 32 33
42 42 40 38 34 29 24 19 22 24 30 41 40 46 50 52 55 55 58 58 53 47 44 47 44 48 47 45 51 49 48 45 39 37 29 27 28 32 33 32 32 32 33
39 39 40 38 34 34 30 27 20 16 16 18 26 40 42 46 47 51 54 52 51 44 41 41 38 43 44 39 43 46 46 44 42 41 33 32 35 36 34 33 34 37 38
34 31 33 32 24 30 31 31 28 20 18 14 13 22 24 31 33 48 43 44 46 40 35 41 43 36 40 38 36 37 37 40 40 42 43 42 44 42 41 41 40 39 42
28 27 25 20 23 24 30 21 22 24 23 18 18 9 16 19 25 19 27 30 31 36 37 41 44 36 38 32 33 37 40 38 34 40 35 36 38 41 44 45 41 39 44
26 27 22 23 18 17 21 22 16 19 12 17 15 13 11 6 18 11 28 19 19 31 38 39 35 42 38 35 35 38 36 39 42 42 39 37 41 49 53 48 45 46 46
26 21 24 24 24 19 19 12 17 12 13 12 9 11 12 12 10 3 6 6 19 20 29 39 40 37 38 36 38 39 39 46 45 42 41 40 39 41 41 37 39 36 37
24 19 22 27 30 26 23 22 16 11 8 7 8 11 4 3 4 4 4 4 9 7 12 18 24 29 36 36 37 38 37 41 41 40 37 38 40 40 38 37 38 33 34
24 24 23 22 22 20 20 20 16 15 16 12 11 10 9 6 7 4 10 8 9 8 12 14 16 19 23 23 26 33 31 32 31 33 31 34 40 47 48 43 36 39 38
21 20 20 20 19 19 19 20 20 18 17 18 17 14 13 13 12 13 13 18 15 12 14 13 14 16 20 22 24 27 27 26 27 30 32 31 28 33 38 41 42 45 45
16 17 18 21 22 22 21 21 22 21 21 20 20 19 17 16 18 20 22 20 17 18 19 17 15 15 16 19 23 25 25 29 31 32 32 29 32 28 31 33 36 41 42
18 18 20 21 23 23 25 25 24 23 23 21 22 22 21 21 21 22 22 25 26 23 25 24 22 19 19 19 19 22 26 29 30 32 32 32 34 32 31 31 29 30 33
19 20 19 20 24 23 27 25 24 24 22 20 23 24 24 24 25 23 24 25 26 30 31 30 29 26 25 23 22 21 23 25 28 31 33 31 30 29 32 33 31 30 32
20 20 21 24 24 24 23 24 28 26 22 22 23 22 25 29 28 27 26 28 27 29 33 34 34 32 31 29 26 24 23 24 27 27 28 31 32 32 33 33 32 31 32
23 24 27 28 28 28 30 33 32 31 28 26 25 23 25 27 26 26 25 27 28 30 34 36 37 37 36 32 29 27 26 25 26 26 27 28 30 33 32 33 33 33 32
24 25 27 27 28 30 31 31 37 36 32 29 28 25 25 27 22 21 21 23 26 26 31 35 38 38 37 35 33 31 30 27 27 27 27 28 29 30 34 34 33 33 31
25 24 24 25 27 28 30 31 32 34 36 36 32 30 27 22 20 20 21 22 28 30 34 32 36 39 39 37 34 31 30 28 26 26 29 28 28 29 32 34 33 34 34
24 23 23 25 24 28 29 28 29 31 33 33 31 29 27 24 21 20 20 24 28 31 30 32 33 36 39 39 38 36 31 29 27 26 27 27 27 28 31 33 33 34 33
26 24 22 26 26 28 30 29 29 31 31 31 30 29 27 23 24 24 22 22 26 30 31 32 32 31 36 38 37 35 32 31 30 28 28 29 28 29 29 30 32 33 32
22 20 21 25 26 28 29 29 30 31 31 31 30 28 26 23 24 24 21 22 23 25 26 27 32 33 32 35 35 33 29 29 30 30 30 29 30 29 29 29 30 30 31
19 20 20 21 23 25 26 27 29 29 29 29 28 27 24 23 22 23 24 23 24 23 25 26 27 29 31 33 31 30 28 28 28 29 31 32 31 31 30 30 30 31 31
21 23 22 21 23 24 26 27 27 27 28 27 25 24 24 20 19 19 20 19 19 19 20 21 24 25 25 25 26 26 26 28 27 26 31 33 33 33 32 32 32 33 34
23 23 22 22 23 25 27 28 26 26 26 24 22 19 18 15 13 13 13 12 11 11 12 15 17 18 21 24 24 26 27 27 27 26 27 32 34 34 33 33 35 35 36
24 20 20 21 21 23 24 25 23 25 25 24 25 22 20 16 13 13 12 12 11 10 11 13 15 17 19 21 21 23 23 22 23 23 26 29 33 33 33 36 36 34 34
23 19 19 19 19 19 21 23 23 22 22 24 25 23 20 17 15 13 12 11 9 8 8 9 9 10 12 13 14 16 17 19 20 22 24 28 32 32 33 32 34 35 35
Wind_Direction
94 121 152 188 205 214 219 219 222 219 220 214 219 214 220 223 226 228 230 230 229 230 231 231 232 231 225 234 235 235 239 237 235 239 234 251 248 237 240 243 243 244 244
66 82 85 104 133 152 162 195 205 212 217 227 225 218 218 224 225 226 226 229 232 230 232 233 233 234 233 231 230 235 240 237 239 242 238 231 242 246 243 246 246 243 243
57 64 66 70 74 81 87 117 165 180 198 211 214 225 227 226 223 226 228 230 231 231 233 232 235 233 232 233 234 235 240 242 239 239 237 231 230 241 247 246 247 251 250
51 54 54 57 56 63 64 67 84 105 133 163 189 205 207 211 220 229 228 230 230 227 232 238 236 235 238 236 234 238 240 241 242 240 233 228 237 246 249 252 251 251 253
48 52 52 52 49 51 54 52 58 58 64 87 104 165 181 199 198 200 202 218 219 227 234 243 233 239 239 238 238 238 237 240 241 244 246 244 248 249 252 260 257 265 265
40 43 45 48 52 52 52 41 52 53 48 47 36 95 155 182 206 236 241 221 220 230 247 241 238 236 239 237 239 239 250 244 236 243 246 249 260 259 256 252 256 266 261
33 36 26 34 42 35 52 43 42 41 41 51 34 33 69 118 146 164 192 197 227 220 238 231 237 234 236 243 246 246 252 250 240 243 238 247 261 254 258 263 258 252 258
29 22 28 26 27 29 34 17 39 29 18 22 7 348 42 34 44 24 170 166 204 212 225 228 230 236 245 245 247 242 245 241 249 248 240 252 258 259 258 261 262 269 254
25 16 11 15 20 17 14 19 4 3 343 312 6 301 344 354 36 45 14 327 258 236 256 233 232 234 233 238 237 246 244 248 249 248 250 254 257 261 260 260 259 253 248
16 13 12 16 11 6 357 360 348 350 337 336 277 306 293 311 291 298 279 276 261 238 257 253 239 237 235 234 233 234 239 239 245 247 249 246 254 252 257 258 256 257 257
8 7 6 9 8 4 352 347 351 337 328 320 311 299 285 279 272 265 255 252 260 252 253 260 260 253 240 238 239 240 241 241 244 246 247 247 249 248 253 254 256 259 260
352 354 357 1 358 359 353 350 346 341 335 324 314 304 292 278 265 261 261 260 256 256 257 255 259 264 265 258 250 248 244 242 244 245 244 246 243 245 244 247 253 257 258
346 344 343 348 352 354 354 349 344 342 333 329 321 314 302 287 272 257 254 260 262 261 261 263 260 258 262 264 265 258 254 250 250 248 249 249 246 245 246 246 245 249 250
340 339 340 340 344 345 347 344 339 335 324 323 316 308 303 297 286 275 263 251 250 255 259 261 261 261 261 260 261 264 263 257 254 250 246 246 248 246 244 246 247 243 247
339 338 336 337 339 337 335 330 333 331 321 318 308 301 303 294 287 285 274 263 253 246 246 253 257 257 256 256 259 260 264 261 257 254 251 245 240 243 247 247 245 247 240
335 338 337 337 334 332 331 330 331 329 324 318 311 308 300 288 283 278 275 276 267 260 254 251 249 249 252 252 254 256 259 258 251 249 251 249 244 243 243 244 240 240 238
332 331 333 333 331 331 329 328 327 328 327 323 319 314 301 296 290 282 278 278 276 267 260 257 254 251 249 249 252 255 256 255 253 249 246 246 244 242 242 240 236 231 233
330 327 330 330 328 329 329 327 328 324 320 321 323 319 310 304 292 288 281 277 271 263 259 257 258 255 253 249 248 251 254 257 249 249 245 243 241 238 239 237 233 232 228
329 327 332 330 327 327 327 327 328 324 319 316 319 317 314 307 306 298 289 266 262 262 259 260 260 258 253 249 248 251 256 258 248 246 251 250 243 239 238 237 233 230 225
331 333 336 330 328 325 326 326 324 322 316 313 313 309 310 306 304 302 291 282 273 265 257 257 261 257 256 251 247 247 252 258 249 246 248 244 242 240 238 233 229 224 217
331 328 328 324 328 326 326 326 329 324 320 318 314 316 316 305 293 290 285 279 272 267 262 260 261 263 255 251 246 248 249 252 246 245 245 240 239 235 229 226 222 215 208
329 328 326 323 326 325 331 334 330 329 328 323 319 319 316 306 294 290 287 282 277 269 268 270 264 260 249 245 240 241 244 245 239 243 243 237 232 226 222 218 210 204 198
334 333 332 332 335 338 342 341 338 336 331 327 327 319 319 311 304 299 294 287 278 275 271 266 260 256 246 243 243 240 242 241 239 241 244 235 225 219 211 207 198 191 186
337 334 335 338 338 344 347 344 343 341 337 333 328 325 328 323 315 313 307 304 294 284 275 266 255 250 247 246 241 239 238 237 237 237 232 228 220 207 200 196 189 182 178
341 339 341 342 341 343 347 348 348 351 348 345 348 346 344 341 331 327 325 314 300 287 275 263 250 247 247 245 241 237 235 233 228 222 216 216 208 195 185 180 176 174 174
345 343 341 343 347 345 352 354 359 1 358 3 2 358 356 351 345 338 328 323 317 304 283 261 246 239 236 231 227 223 216 210 206 202 196 192 187 178 176 171 169 169 169
Height
1358 1357 1358 1362 1364 1371 1379 1386 1390 1393 1397 1403 1409 1415 1421 1427 1433 1439 1444 1449 1456 1463 1468 1474 1478 1484 1490 1493 1498 1504 1509 1515 1520 1524 1529 1528 1529 1532 1535 1537 1540 1541 1543
1364 1360 1361 1361 1360 1363 1367 1372 1378 1383 1391 1398 1404 1409 1414 1419 1425 1431 1437 1441 1447 1453 1459 1465 1470 1474 1479 1485 1490 1494 1498 1504 1509 1513 1518 1524 1520 1524 1528 1530 1533 1533 1535
1374 1367 1366 1364 1365 1366 1368 1369 1371 1376 1383 1390 1394 1401 1405 1410 1416 1422 1428 1434 1439 1445 1449 1454 1460 1465 1469 1474 1479 1484 1489 1494 1500 1505 1510 1514 1514 1516 1519 1522 1524 1528 1529
1383 1379 1377 1375 1378 1375 1373 1371 1372 1375 1379 1384 1388 1392 1397 1404 1409 1413 1418 1424 1429 1435 1441 1447 1452 1455 1460 1465 1470 1474 1480 1484 1489 1494 1499 1502 1504 1507 1511 1514 1516 1518 1521
1387 1394 1389 1387 1392 1379 1375 1376 1376 1382 1383 1384 1387 1385 1392 1394 1398 1400 1406 1416 1409 1423 1432 1437 1444 1448 1454 1458 1461 1466 1471 1475 1478 1483 1487 1491 1494 1496 1501 1507 1508 1512 1513
1392 1396 1393 1398 1391 1391 1381 1391 1379 1385 1386 1391 1394 1388 1386 1388 1393 1390 1398 1408 1412 1418 1424 1431 1434 1438 1441 1450 1454 1457 1460 1461 1468 1474 1476 1477 1478 1485 1489 1495 1500 1501 1506
1400 1393 1400 1392 1398 1396 1383 1382 1393 1386 1394 1392 1403 1407 1392 1397 1378 1396 1398 1403 1410 1411 1419 1421 1424 1430 1436 1441 1446 1447 1451 1453 1460 1463 1467 1467 1473 1478 1485 1486 1487 1485 1489
1407 1413 1403 1400 1393 1396 1389 1399 1384 1394 1394 1397 1399 1404 1395 1395 1392 1395 1397 1400 1404 1409 1414 1417 1422 1423 1428 1431 1436 1440 1442 1445 1448 1449 1454 1458 1463 1470 1472 1475 1477 1477 1478
1412 1417 1414 1403 1389 1389 1394 1389 1399 1399 1402 1408 1394 1410 1401 1402 1399 1400 1402 1401 1408 1405 1411 1412 1415 1417 1418 1422 1427 1431 1433 1436 1440 1442 1446 1450 1455 1459 1464 1467 1466 1466 1469
1415 1413 1410 1408 1405 1403 1405 1401 1406 1398 1399 1395 1413 1401 1403 1400 1403 1399 1408 1408 1413 1405 1410 1413 1414 1413 1413 1416 1420 1423 1425 1428 1431 1433 1436 1441 1444 1449 1452 1456 1458 1459 1461
1419 1420 1418 1415 1412 1413 1413 1410 1397 1401 1399 1396 1396 1398 1396 1397 1401 1405 1407 1411 1409 1405 1408 1411 1411 1411 1409 1410 1413 1417 1419 1422 1424 1425 1427 1431 1433 1437 1441 1445 1447 1451 1451
1427 1423 1419 1412 1412 1407 1407 1402 1399 1396 1394 1395 1393 1391 1391 1394 1396 1401 1404 1406 1402 1401 1405 1406 1406 1404 1403 1404 1406 1409 1412 1413 1415 1417 1418 1422 1425 1428 1433 1436 1439 1440 1443
1424 1422 1418 1414 1411 1405 1400 1398 1397 1393 1394 1389 1390 1386 1385 1387 1391 1393 1394 1392 1391 1392 1396 1398 1399 1397 1398 1397 1399 1400 1402 1404 1407 1407 1409 1412 1416 1422 1425 1427 1430 1431 1434
1422 1420 1415 1412 1405 1400 1396 1399 1397 1396 1397 1390 1386 1385 1382 1380 1381 1382 1382 1384 1384 1386 1388 1387 1388 1388 1390 1389 1393 1394 1395 1396 1397 1399 1401 1405 1408 1411 1415 1419 1420 1421 1425
1419 1415 1411 1407 1404 1401 1400 1401 1397 1394 1391 1385 1383 1378 1372 1372 1374 1373 1372 1374 1374 1376 1378 1376 1376 1378 1381 1381 1384 1385 1387 1388 1391 1393 1393 1395 1399 1404 1408 1409 1412 1414 1414
1416 1410 1406 1402 1399 1396 1395 1390 1386 1380 1376 1373 1372 1368 1369 1369 1367 1366 1364 1364 1364 1367 1366 1365 1367 1370 1373 1374 1375 1376 1378 1381 1383 1384 1387 1389 1392 1394 1398 1403 1404 1407 1407
1413 1409 1404 1401 1398 1393 1388 1382 1374 1368 1367 1365 1363 1362 1362 1358 1355 1353 1353 1354 1354 1355 1355 1356 1355 1357 1361 1364 1366 1368 1369 1370 1373 1375 1379 1384 1386 1385 1392 1393 1396 1398 1400
1412 1409 1403 1397 1395 1391 1385 1378 1372 1366 1361 1358 1355 1353 1353 1350 1349 1346 1346 1346 1343 1342 1341 1342 1344 1346 1350 1353 1356 1358 1361 1361 1363 1367 1373 1375 1376 1378 1382 1384 1385 1388 1393
1408 1404 1399 1394 1392 1388 1383 1377 1370 1365 1359 1353 1349 1347 1346 1342 1341 1337 1338 1335 1334 1334 1332 1332 1334 1337 1340 1342 1346 1348 1352 1354 1356 1358 1362 1364 1368 1370 1373 1377 1379 1385 1385
1402 1398 1396 1392 1389 1385 1379 1372 1366 1360 1355 1349 1344 1341 1338 1334 1331 1330 1331 1326 1323 1322 1324 1325 1326 1328 1332 1334 1335 1339 1343 1346 1347 1349 1351 1355 1359 1363 1365 1369 1374 1377 1380
1401 1398 1396 1391 1385 1379 1373 1366 1360 1354 1349 1343 1339 1335 1331 1328 1327 1325 1323 1320 1318 1315 1315 1318 1319 1320 1323 1325 1327 1332 1335 1337 1342 1345 1345 1349 1353 1353 1358 1362 1368 1372 1375
1401 1397 1393 1388 1383 1378 1371 1364 1357 1351 1346 1340 1333 1329 1326 1323 1320 1317 1315 1313 1311 1309 1308 1309 1310 1311 1314 1318 1320 1323 1327 1330 1332 1336 1341 1344 1345 1348 1349 1355 1360 1366 1371
1396 1391 1386 1382 1378 1372 1365 1359 1352 1346 1340 1333 1327 1325 1321 1317 1311 1309 1308 1305 1303 1302 1301 1302 1302 1305 1307 1311 1313 1315 1318 1322 1325 1328 1333 1337 1338 1341 1344 1353 1354 1361 1367
1392 1386 1381 1376 1371 1365 1360 1354 1349 1344 1338 1333 1329 1324 1318 1313 1309 1307 1305 1302 1297 1296 1296 1296 1297 1300 1301 1305 1307 1309 1311 1314 1317 1321 1324 1332 1336 1338 1340 1347 1352 1357 1364
1389 1384 1379 1374 1370 1365 1360 1355 1349 1343 1337 1330 1322 1317 1312 1308 1304 1302 1299 1296 1294 1293 1294 1294 1295 1296 1298 1299 1301 1304 1305 1308 1312 1315 1318 1326 1332 1336 1337 1344 1351 1356 1366
1388 1383 1379 1375 1370 1366 1361 1356 1350 1344 1338 1331 1324 1318 1313 1308 1304 1300 1298 1295 1294 1293 1292 1292 1292 1292 1293 1294 1297 1299 1302 1304 1309 1313 1318 1326 1333 1337 1342 1344 1351 1359 1366